Le nostre stazioni meteo in Italia

Pubblicità
Il mio iltempo24.it
London/Heathrow Intl, Gran Bretagna (3772): Temperatura & dewpoint: 13.06.2019 00:00:00 - 19.06.2019 00:00:00 (BST)London/Heathrow Intl, Gran Bretagna (3772): velocità del vento & gusts: 13.06.2019 00:00:00 - 19.06.2019 00:00:00 (BST)London/Heathrow Intl, Gran Bretagna (3772): direzione del vento: 13.06.2019 00:00:00 - 19.06.2019 00:00:00 (BST)London/Heathrow Intl, Gran Bretagna (3772): reduced air pressure: 13.06.2019 00:00:00 - 19.06.2019 00:00:00 (BST)London/Heathrow Intl, Gran Bretagna (3772): visibility: 13.06.2019 00:00:00 - 19.06.2019 00:00:00 (BST)London/Heathrow Intl, Gran Bretagna (3772): ore di luce: 13.06.2019 00:00:00 - 19.06.2019 00:00:00 (BST)London/Heathrow Intl, Gran Bretagna (3772): precipitazioni: 13.06.2019 00:00:00 - 19.06.2019 00:00:00 (BST)
Data & Tempo tt [°C] td [°C] ff [km/h] ff [kn] fx [km/h] fx [kn] dd ppp [hPa] vv [km] sd [min] rr [mm]
19.06.2019 00:00:00 15,8 14,4 9 5 - - NNE 1009,3 10 0 0,0
18.06.2019 23:00:00 15,9 14,4 5 3 - - NE 1010,3 9 0 0,0
18.06.2019 22:00:00 16,0 14,6 8 4 - - ENE 1011,1 9 0 0,0
18.06.2019 21:00:00 16,6 15,2 5 3 - - - 1011,2 9 0 0,0
18.06.2019 20:00:00 16,7 15,4 8 4 - - N 1011,6 8 0 0,0
18.06.2019 19:00:00 16,9 15,2 8 4 - - ENE 1011,3 10 0 0,0
18.06.2019 18:00:00 16,6 15,2 8 4 - - N 1012,0 10 0 0,6
18.06.2019 17:00:00 16,9 14,4 4 2 - - - 1012,8 7 0 0,6
18.06.2019 16:00:00 16,9 14,0 4 2 - - - 1012,9 10 0 0,6
18.06.2019 15:00:00 17,8 13,3 8 4 - - ENE 1013,3 10 0 0,2
18.06.2019 14:00:00 17,8 12,5 5 3 - - - 1014,2 10 0 0,2
18.06.2019 13:00:00 17,2 11,6 11 6 - - S 1014,4 10 0 0,0
18.06.2019 12:00:00 18,4 10,5 9 5 - - SO 1014,9 50 6 0,0
18.06.2019 11:00:00 18,3 10,1 13 7 - - SO 1015,1 10 6 0,0
18.06.2019 10:00:00 17,9 10,0 5 3 - - - 1014,9 10 36 0,0
18.06.2019 09:00:00 16,6 10,6 5 3 - - - 1015,5 10 30 0,0
18.06.2019 08:00:00 15,1 10,2 5 3 - - - 1015,6 10 54 0,0
18.06.2019 07:00:00 14,0 10,2 5 3 - - - 1015,8 10 12 0,0
18.06.2019 06:00:00 12,0 10,1 4 2 - - S 1015,8 10 0 0,0
18.06.2019 05:00:00 11,6 9,6 5 3 - - S 1015,7 30 0 0,0
18.06.2019 04:00:00 12,2 9,4 8 4 - - O 1015,6 10 0 0,0
18.06.2019 03:00:00 12,2 9,1 8 4 - - SO 1016,0 35 0 0,0
18.06.2019 02:00:00 12,6 9,5 8 4 - - SSO 1016,4 10 0 0,0
18.06.2019 01:00:00 13,0 9,2 9 5 - - SSO 1016,9 10 - 0,0
18.06.2019 00:00:00 14,1 9,6 11 6 - - SO 1017,0 10 0 0,0
17.06.2019 23:00:00 15,1 9,4 15 8 - - OSO 1017,0 10 0 0,0
17.06.2019 22:00:00 16,2 9,2 16 9 - - SO 1016,9 10 0 0,0
17.06.2019 21:00:00 17,1 8,8 18 10 - - SO 1016,4 55 12 0,0
17.06.2019 20:00:00 18,7 9,1 22 12 - - SO 1016,3 10 42 0,0
17.06.2019 19:00:00 18,8 9,0 21 11 - - SSO 1016,4 10 42 0,0
17.06.2019 18:00:00 20,7 9,3 21 11 - - SO 1016,3 65 30 0,0
17.06.2019 17:00:00 20,0 8,8 24 13 - - OSO 1016,6 10 6 0,0
17.06.2019 16:00:00 21,0 8,4 22 12 - - SO 1016,8 10 60 0,0
17.06.2019 15:00:00 22,0 8,8 22 12 - - SO 1017,0 10 60 0,0
17.06.2019 14:00:00 21,3 9,8 24 13 - - SO 1017,3 10 54 0,0
17.06.2019 13:00:00 21,1 8,7 26 14 - - SSO 1017,7 40 54 0,0
17.06.2019 12:00:00 19,0 7,9 26 14 - - SO 1017,9 40 54 0,0
17.06.2019 11:00:00 19,0 9,0 24 13 - - SSO 1018,1 50 54 0,0
17.06.2019 10:00:00 17,2 8,4 29 16 - - SSO 1018,4 55 18 0,0
17.06.2019 09:00:00 17,0 10,4 21 11 - - SSO 1018,5 10 18 0,0
17.06.2019 08:00:00 15,2 11,1 18 10 - - SSO 1018,7 10 12 0,0
17.06.2019 07:00:00 14,4 11,6 15 8 - - S 1018,3 10 42 0,0
17.06.2019 06:00:00 12,1 10,9 11 6 - - S 1018,1 10 0 0,0
17.06.2019 05:00:00 11,6 10,3 11 6 - - SSE 1018,0 26 0 0,0
17.06.2019 04:00:00 11,6 9,6 8 4 - - S 1018,0 10 0 0,0
17.06.2019 03:00:00 13,0 10,3 11 6 - - S 1018,1 35 0 0,0
17.06.2019 02:00:00 13,5 10,3 15 8 - - SSO 1018,3 10 0 0,0
17.06.2019 01:00:00 14,1 10,3 16 9 - - SSO 1018,4 10 - 0,0
17.06.2019 00:00:00 14,6 10,2 15 8 - - SSO 1018,5 35 0 0,0
16.06.2019 23:00:00 15,1 9,9 18 10 - - SSO 1018,5 10 0 0,0
16.06.2019 22:00:00 15,9 9,8 22 12 - - SO 1018,4 10 0 0,0
16.06.2019 21:00:00 16,8 9,8 28 15 - - SO 1018,0 45 0 0,0
16.06.2019 20:00:00 17,6 9,6 31 17 - - SO 1017,9 55 18 0,0
16.06.2019 19:00:00 18,9 10,1 28 15 - - SO 1017,5 10 36 0,0
16.06.2019 18:00:00 18,8 11,6 24 13 50 27 SO 1017,3 10 18 0,0
16.06.2019 17:00:00 18,9 11,5 34 18 46 25 SO 1017,3 50 18 0,0
16.06.2019 16:00:00 19,4 11,3 29 16 48 26 SO 1017,1 10 18 0,0
16.06.2019 15:00:00 20,8 12,0 31 17 52 28 SO 1016,7 10 48 0,0
16.06.2019 14:00:00 20,1 11,2 35 19 52 28 SO 1016,4 10 54 0,0
16.06.2019 13:00:00 19,0 11,4 29 16 50 27 SO 1016,2 10 48 0,2
16.06.2019 12:00:00 17,2 13,0 28 15 - - SSO 1016,1 10 24 0,0
16.06.2019 11:00:00 15,6 13,6 22 12 - - SSO 1016,3 10 0 1,0
16.06.2019 10:00:00 15,4 12,5 21 11 - - S 1016,2 10 0 0,0
16.06.2019 09:00:00 15,3 12,7 22 12 - - S 1016,1 10 0 0,0
16.06.2019 08:00:00 14,2 12,2 16 9 - - S 1016,0 10 6 0,0
16.06.2019 07:00:00 12,2 11,2 15 8 - - S 1015,9 10 6 0,0
16.06.2019 06:00:00 10,7 10,3 9 5 - - SE 1015,6 5 0 0,0
16.06.2019 05:00:00 9,3 8,9 8 4 - - SSE 1015,7 7 0 0,0
16.06.2019 04:00:00 9,1 8,5 5 3 - - S 1015,5 10 0 0,0
16.06.2019 03:00:00 10,1 9,3 8 4 - - S 1015,6 10 0 0,0
16.06.2019 02:00:00 10,7 9,5 9 5 - - SO 1015,4 10 0 0,0
16.06.2019 01:00:00 11,4 9,8 11 6 - - SO 1015,1 10 - 0,0
16.06.2019 00:00:00 12,5 10,6 15 8 - - SSO 1014,8 40 0 0,0
15.06.2019 23:00:00 13,4 11,5 15 8 - - SSO 1014,3 10 0 0,0
15.06.2019 22:00:00 13,5 11,4 16 9 - - SSO 1013,9 10 0 0,0
15.06.2019 21:00:00 14,6 12,8 15 8 - - SSO 1013,4 40 0 0,4
15.06.2019 20:00:00 14,9 12,7 16 9 - - S 1013,2 35 0 0,0
15.06.2019 19:00:00 15,1 13,0 22 12 - - S 1013,1 10 0 0,4
15.06.2019 18:00:00 17,4 11,1 26 14 - - S 1012,8 50 24 0,0
15.06.2019 17:00:00 18,3 11,8 24 13 - - SSO 1012,8 10 6 0,0
15.06.2019 16:00:00 16,8 12,2 24 13 - - S 1013,0 10 6 0,0
15.06.2019 15:00:00 17,3 11,2 26 14 - - S 1013,1 65 6 0,0
15.06.2019 14:00:00 16,6 10,1 22 12 - - SSO 1013,2 10 0 0,0
15.06.2019 13:00:00 17,0 8,9 28 15 - - SSO 1012,9 10 0 0,0
15.06.2019 12:00:00 18,0 8,1 22 12 - - SO 1012,4 10 18 0,0
15.06.2019 11:00:00 19,3 9,1 26 14 46 25 SSO 1012,1 10 54 0,0
15.06.2019 10:00:00 16,8 10,3 21 11 - - SSO 1012,3 10 30 0,0
15.06.2019 09:00:00 16,9 11,6 18 10 - - S 1012,3 10 6 0,0
15.06.2019 08:00:00 14,9 10,8 15 8 - - S 1012,3 30 24 0,0
15.06.2019 07:00:00 13,8 11,0 11 6 - - S 1012,1 10 42 0,0
15.06.2019 06:00:00 11,5 10,0 5 3 - - S 1012,2 30 0 0,0
15.06.2019 05:00:00 11,8 10,3 11 6 - - S 1012,2 10 0 0,0
15.06.2019 04:00:00 12,0 10,0 8 4 - - SSO 1011,9 10 0 0,0
15.06.2019 03:00:00 12,3 10,2 5 3 - - S 1012,1 10 0 0,0
15.06.2019 02:00:00 12,4 10,0 9 5 - - S 1012,3 10 0 0,0
15.06.2019 01:00:00 12,8 10,0 11 6 - - S 1012,4 10 - 0,0
15.06.2019 00:00:00 12,7 9,5 11 6 - - S 1012,2 10 0 0,0
14.06.2019 23:00:00 14,0 9,9 15 8 - - S 1012,3 10 0 0,0
14.06.2019 22:00:00 15,5 9,4 16 9 - - S 1012,0 10 0 0,0
14.06.2019 21:00:00 16,0 8,7 18 10 - - S 1011,5 10 24 0,0
14.06.2019 20:00:00 16,9 8,9 21 11 - - SSO 1011,3 10 24 0,0
14.06.2019 19:00:00 18,5 9,4 24 13 - - S 1011,2 10 36 0,0
14.06.2019 18:00:00 17,9 8,6 22 12 - - S 1010,9 27 42 0,0
14.06.2019 17:00:00 19,3 10,3 24 13 - - SSO 1010,9 10 30 0,0
14.06.2019 16:00:00 18,3 9,7 26 14 - - S 1010,8 10 24 0,0
14.06.2019 15:00:00 18,0 10,3 26 14 - - SSO 1011,0 10 24 0,0
14.06.2019 14:00:00 18,3 10,4 28 15 - - SSO 1010,6 10 36 0,0
14.06.2019 13:00:00 17,8 12,5 26 14 46 25 SSO 1010,6 10 12 0,0
14.06.2019 12:00:00 17,0 10,3 26 14 - - SO 1010,4 10 30 0,0
14.06.2019 11:00:00 17,1 11,5 26 14 - - SSO 1010,1 10 24 0,0
14.06.2019 10:00:00 15,4 10,3 24 13 - - SSO 1009,9 10 0 0,0
14.06.2019 09:00:00 14,9 11,8 22 12 - - SSO 1009,7 50 6 0,0
14.06.2019 08:00:00 13,5 11,8 22 12 - - SSO 1009,2 9 0 0,0
14.06.2019 07:00:00 13,1 11,7 15 8 - - S 1009,0 40 0 0,0
14.06.2019 06:00:00 12,6 11,6 15 8 - - S 1008,7 25 0 0,0
14.06.2019 05:00:00 12,5 11,4 15 8 - - S 1008,6 10 0 0,2
14.06.2019 04:00:00 12,4 11,7 15 8 - - S 1008,3 10 0 0,0
14.06.2019 03:00:00 12,5 11,8 13 7 - - S 1008,3 11 0 0,4
14.06.2019 02:00:00 12,7 11,7 11 6 - - S 1008,4 10 0 0,0
14.06.2019 01:00:00 12,6 11,2 9 5 - - SSO 1008,5 10 - 0,0
14.06.2019 00:00:00 12,5 10,9 16 9 - - SSO 1008,5 75 0 0,0
13.06.2019 23:00:00 13,0 10,5 21 11 - - SO 1008,1 10 0 0,0
13.06.2019 22:00:00 12,8 11,0 18 10 - - SO 1007,8 10 0 0,0
13.06.2019 21:00:00 13,3 11,2 22 12 - - SO 1006,8 10 0 0,0
13.06.2019 20:00:00 13,7 11,6 22 12 - - SSO 1006,2 35 0 0,0
13.06.2019 19:00:00 14,2 11,2 24 13 - - SSO 1005,6 10 0 0,0
13.06.2019 18:00:00 13,6 10,8 24 13 - - SO 1005,4 10 0 0,0
13.06.2019 17:00:00 13,7 11,1 28 15 - - SO 1005,4 10 0 0,0
13.06.2019 16:00:00 14,0 10,5 26 14 50 27 SO 1005,3 10 0 0,0
13.06.2019 15:00:00 13,3 10,9 28 15 - - SSO 1005,3 10 0 0,2
13.06.2019 14:00:00 13,3 11,1 24 13 - - SSO 1005,4 10 0 0,0
13.06.2019 13:00:00 13,4 11,8 22 12 - - SO 1005,2 10 0 1,2
13.06.2019 12:00:00 12,2 11,1 26 14 - - OSO 1005,2 3,5 0 2,0
13.06.2019 11:00:00 12,5 11,5 18 10 - - SO 1005,1 10 0 0,8
13.06.2019 10:00:00 11,7 10,6 24 13 - - SO 1005,1 8 0 1,6
13.06.2019 09:00:00 12,5 11,6 22 12 - - SSO 1005,0 9 0 1,2
13.06.2019 08:00:00 12,3 11,0 21 11 - - SSO 1005,0 8 0 0,0
13.06.2019 07:00:00 12,0 11,3 16 9 - - SSO 1005,0 8 0 0,0
13.06.2019 06:00:00 11,6 11,1 13 7 - - SSO 1005,2 8 0 1,0
13.06.2019 05:00:00 11,5 10,8 15 8 - - SSO 1005,3 10 0 0,2
13.06.2019 04:00:00 11,6 11,2 13 7 - - SSO 1005,3 6 0 0,0
13.06.2019 03:00:00 11,8 11,3 9 5 - - SSO 1005,7 4,7 0 0,2
13.06.2019 02:00:00 11,6 11,1 9 5 - - SSO 1006,3 7 0 0,0
13.06.2019 01:00:00 11,7 11,1 9 5 - - OSO 1006,8 7 - 0,0
13.06.2019 00:00:00 11,8 11,4 8 4 - - O 1007,3 12 0 1,6

tt = Temperatura
td = dewpoint
ff = velocità del vento
fx = gusts
dd = direzione del vento
ppp = reduced air pressure
vv = visibility
sd = ore di luce
rr = precipitazioni

Stazioni seguenti

WeatherPro
AMSI
MeteoEarth